When you browse on this site, cookies collect data to enhance your experience and personalize the content and advertising you see.
Visit our Privacy Policy to learn more. By continuing to use the site, you agree to this use of cookies and data.
  • In Sweden
  • List of Countries
  • For 7 days
  • Water Temperature
  • Weather Map
  • Weather Widgets
  • user-avatar
    Login

    Hourly Weather San Luis

    Today, 19 October, Saturday

    Time Temperature Precipitation Wind Pressure Humidity
    00:00 +17°C° 0 mm 5 mps 702 mmHg 39%
    01:00 +16°C° 0 mm 5 mps 702 mmHg 41%
    02:00 +16°C° 0 mm 5 mps 702 mmHg 43%
    03:00 +16°C° 0 mm 5 mps 702 mmHg 43%
    04:00 +15°C° 0 mm 5 mps 702 mmHg 43%
    05:00 +15°C° 0 mm 5 mps 702 mmHg 42%
    06:00 +17°C° 0 mm 5 mps 702 mmHg 39%
    07:00 +19°C° 0 mm 6 mps 703 mmHg 36%
    08:00 +21°C° 0 mm 7 mps 704 mmHg 33%
    09:00 +22°C° 0 mm 7 mps 703 mmHg 29%
    10:00 +23°C° 0 mm 7 mps 703 mmHg 26%
    11:00 +26°C° 0 mm 8 mps 703 mmHg 23%
    12:00 +26°C° 0 mm 8 mps 702 mmHg 21%
    13:00 +27°C° 0 mm 8 mps 702 mmHg 19%
    14:00 +28°C° 0 mm 8 mps 701 mmHg 17%
    15:00 +27°C° 0 mm 8 mps 700 mmHg 17%
    16:00 +27°C° 0 mm 7 mps 699 mmHg 18%
    17:00 +27°C° 0 mm 6 mps 699 mmHg 19%
    18:00 +24°C° 0 mm 6 mps 699 mmHg 22%
    19:00 +22°C° 0 mm 5 mps 699 mmHg 25%
    20:00 +20°C° 0 mm 5 mps 699 mmHg 29%
    21:00 +19°C° 0 mm 5 mps 699 mmHg 31%
    22:00 +19°C° 0 mm 5 mps 699 mmHg 33%
    23:00 +17°C° 0 mm 5 mps 699 mmHg 35%

    Tomorrow, 20 October, Sunday

    Time Temperature Precipitation Wind Pressure Humidity
    00:00 +17°C° 0 mm 5 mps 698 mmHg 37%
    01:00 +18°C° 0 mm 4 mps 698 mmHg 38%
    02:00 +17°C° 0 mm 4 mps 697 mmHg 40%
    03:00 +17°C° 0 mm 4 mps 697 mmHg 43%
    04:00 +17°C° 0 mm 3 mps 698 mmHg 45%
    05:00 +16°C° 0 mm 3 mps 698 mmHg 48%
    06:00 +16°C° 0.2 mm 3 mps 699 mmHg 51%
    07:00 +16°C° 0.2 mm 3 mps 699 mmHg 54%
    08:00 +16°C° 0.2 mm 3 mps 700 mmHg 58%
    09:00 +16°C° 0.1 mm 3 mps 700 mmHg 59%
    10:00 +16°C° 0.1 mm 3 mps 700 mmHg 60%
    11:00 +16°C° 0.1 mm 3 mps 700 mmHg 61%
    12:00 +18°C° 0 mm 3 mps 700 mmHg 55%
    13:00 +19°C° 0 mm 2 mps 700 mmHg 49%
    14:00 +21°C° 0 mm 2 mps 699 mmHg 43%
    15:00 +21°C° 0 mm 2 mps 699 mmHg 40%
    16:00 +23°C° 0 mm 2 mps 699 mmHg 37%
    17:00 +23°C° 0 mm 2 mps 698 mmHg 34%
    18:00 +20°C° 0 mm 2 mps 698 mmHg 40%
    19:00 +18°C° 0 mm 3 mps 698 mmHg 46%
    20:00 +17°C° 0 mm 3 mps 698 mmHg 52%
    21:00 +16°C° 0 mm 3 mps 698 mmHg 53%
    22:00 +16°C° 0 mm 3 mps 699 mmHg 53%
    23:00 +16°C° 0 mm 3 mps 699 mmHg 53%

    Day after tomorrow, 21 October, Monday

    Time Temperature Precipitation Wind Pressure Humidity
    00:00 +14°C° 0 mm 3 mps 699 mmHg 55%
    01:00 +15°C° 0 mm 2 mps 699 mmHg 56%
    02:00 +14°C° 0 mm 2 mps 698 mmHg 58%
    03:00 +14°C° 0 mm 2 mps 698 mmHg 58%
    04:00 +13°C° 0 mm 1 mps 699 mmHg 59%
    05:00 +13°C° 0 mm 1 mps 699 mmHg 59%
    06:00 +15°C° 0 mm 1 mps 700 mmHg 53%
    07:00 +17°C° 0 mm 2 mps 700 mmHg 47%
    08:00 +20°C° 0 mm 2 mps 701 mmHg 41%
    09:00 +21°C° 0 mm 2 mps 701 mmHg 37%
    10:00 +24°C° 0 mm 2 mps 701 mmHg 32%
    11:00 +25°C° 0 mm 1 mps 702 mmHg 28%
    12:00 +26°C° 0 mm 1 mps 701 mmHg 26%
    13:00 +27°C° 0 mm 2 mps 701 mmHg 23%
    14:00 +28°C° 0 mm 2 mps 701 mmHg 21%
    15:00 +27°C° 0 mm 2 mps 700 mmHg 21%
    16:00 +27°C° 0 mm 2 mps 699 mmHg 21%
    17:00 +27°C° 0 mm 3 mps 699 mmHg 21%
    18:00 +25°C° 0 mm 4 mps 699 mmHg 26%
    19:00 +22°C° 0 mm 6 mps 699 mmHg 32%
    20:00 +20°C° 0 mm 7 mps 699 mmHg 37%
    21:00 +20°C° 0 mm 8 mps 699 mmHg 39%
    22:00 +18°C° 0 mm 8 mps 699 mmHg 42%
    23:00 +17°C° 0 mm 8 mps 700 mmHg 45%

    22 October, Tuesday

    Time Temperature Precipitation Wind Pressure Humidity
    00:00 +17°C° 0 mm 7 mps 699 mmHg 44%
    01:00 +17°C° 0 mm 6 mps 699 mmHg 43%
    02:00 +18°C° 0 mm 4 mps 699 mmHg 42%
    03:00 +17°C° 0 mm 4 mps 699 mmHg 44%
    04:00 +17°C° 0 mm 4 mps 699 mmHg 46%
    05:00 +15°C° 0 mm 5 mps 699 mmHg 48%
    06:00 +16°C° 0 mm 5 mps 699 mmHg 47%
    07:00 +17°C° 0 mm 6 mps 700 mmHg 46%
    08:00 +17°C° 0 mm 7 mps 700 mmHg 46%
    09:00 +20°C° 0 mm 6 mps 700 mmHg 41%
    10:00 +22°C° 0 mm 6 mps 700 mmHg 37%
    11:00 +23°C° 0 mm 6 mps 700 mmHg 33%
    12:00 +24°C° 0 mm 6 mps 699 mmHg 31%
    13:00 +26°C° 0 mm 6 mps 699 mmHg 29%
    14:00 +27°C° 0 mm 5 mps 698 mmHg 27%
    15:00 +26°C° 0 mm 6 mps 698 mmHg 28%
    16:00 +26°C° 0 mm 6 mps 697 mmHg 30%
    17:00 +26°C° 0 mm 6 mps 697 mmHg 31%
    18:00 +22°C° 0 mm 6 mps 697 mmHg 40%
    19:00 +20°C° 0 mm 7 mps 697 mmHg 49%
    20:00 +16°C° 0 mm 8 mps 697 mmHg 58%
    21:00 +16°C° 0 mm 7 mps 697 mmHg 59%
    22:00 +15°C° 0 mm 6 mps 697 mmHg 60%
    23:00 +15°C° 0 mm 5 mps 698 mmHg 61%

    23 October, Wednesday

    Time Temperature Precipitation Wind Pressure Humidity
    00:00 +14°C° 0.1 mm 4 mps 697 mmHg 62%
    01:00 +14°C° 0.1 mm 3 mps 697 mmHg 63%
    02:00 +13°C° 0.1 mm 3 mps 697 mmHg 63%
    03:00 +13°C° 0.1 mm 3 mps 697 mmHg 62%
    04:00 +13°C° 0.1 mm 3 mps 698 mmHg 61%
    05:00 +13°C° 0.1 mm 3 mps 698 mmHg 60%
    06:00 +16°C° 0.1 mm 3 mps 698 mmHg 54%
    07:00 +18°C° 0.1 mm 3 mps 699 mmHg 47%
    08:00 +20°C° 0.1 mm 3 mps 700 mmHg 40%
    09:00 +22°C° 0 mm 3 mps 700 mmHg 37%
    10:00 +24°C° 0 mm 3 mps 700 mmHg 33%
    11:00 +26°C° 0 mm 3 mps 700 mmHg 29%
    12:00 +26°C° 0 mm 3 mps 700 mmHg 28%
    13:00 +27°C° 0 mm 3 mps 699 mmHg 28%
    14:00 +27°C° 0 mm 3 mps 699 mmHg 27%
    15:00 +27°C° 0 mm 4 mps 698 mmHg 28%
    16:00 +26°C° 0 mm 5 mps 698 mmHg 29%
    17:00 +26°C° 0 mm 6 mps 697 mmHg 30%
    18:00 +23°C° 0 mm 6 mps 697 mmHg 34%
    19:00 +22°C° 0 mm 6 mps 697 mmHg 39%
    20:00 +20°C° 0 mm 6 mps 698 mmHg 43%
    21:00 +20°C° 0 mm 6 mps 698 mmHg 43%
    22:00 +20°C° 0 mm 6 mps 698 mmHg 43%
    23:00 +20°C° 0 mm 6 mps 698 mmHg 43%

    24 October, Thursday

    Time Temperature Precipitation Wind Pressure Humidity
    00:00 +20°C° 0 mm 5 mps 698 mmHg 45%
    01:00 +19°C° 0 mm 5 mps 698 mmHg 46%
    02:00 +19°C° 0 mm 4 mps 697 mmHg 48%
    03:00 +18°C° 0.1 mm 4 mps 697 mmHg 51%
    04:00 +17°C° 0.1 mm 4 mps 697 mmHg 53%
    05:00 +17°C° 0.1 mm 3 mps 697 mmHg 56%
    06:00 +19°C° 0.1 mm 5 mps 698 mmHg 50%
    07:00 +20°C° 0.1 mm 6 mps 698 mmHg 44%
    08:00 +22°C° 0.1 mm 7 mps 698 mmHg 38%
    09:00 +24°C° 0 mm 7 mps 698 mmHg 35%
    10:00 +26°C° 0 mm 7 mps 698 mmHg 32%
    11:00 +28°C° 0 mm 7 mps 698 mmHg 29%
    12:00 +28°C° 0 mm 7 mps 697 mmHg 28%
    13:00 +29°C° 0 mm 7 mps 697 mmHg 28%
    14:00 +29°C° 0 mm 7 mps 696 mmHg 27%
    15:00 +29°C° 0 mm 7 mps 696 mmHg 28%
    16:00 +28°C° 0 mm 6 mps 695 mmHg 29%
    17:00 +28°C° 0 mm 6 mps 694 mmHg 30%
    18:00 +27°C° 0 mm 6 mps 695 mmHg 33%
    19:00 +25°C° 0 mm 5 mps 695 mmHg 35%
    20:00 +23°C° 0 mm 4 mps 695 mmHg 38%
    21:00 +21°C° 0.7 mm 4 mps 695 mmHg 54%
    22:00 +17°C° 0.7 mm 5 mps 695 mmHg 70%
    23:00 +15°C° 0.7 mm 6 mps 696 mmHg 86%
    Show more